Wind_Speed
19 22 26 23 23 23 21 21 20 20 24 24 24 23 25 27 22 17 24 24 28 31 33 31 31 29 28 25 23 22 21 21 22 20 18 16 15 16 12 7 10 7 4 4
18 30 21 18 21 24 25 23 21 20 21 25 25 23 26 27 27 31 30 26 29 32 29 33 35 32 32 27 24 24 22 20 22 21 18 16 15 15 12 6 7 6 4 4
26 17 20 23 23 25 25 26 22 19 14 22 25 26 30 25 20 38 38 28 29 34 36 35 34 36 34 29 25 25 23 19 22 22 21 19 17 18 17 13 12 8 6 5
25 22 21 19 28 24 28 22 24 23 20 24 22 23 28 35 33 20 37 27 29 32 34 35 33 37 34 28 25 25 25 22 22 24 23 20 18 17 14 11 10 10 7 6
21 23 24 28 20 25 29 22 21 25 25 25 28 29 28 35 33 43 42 33 28 29 32 35 31 28 28 29 24 25 26 24 24 24 24 22 21 17 11 15 12 11 7 5
18 19 21 26 28 22 23 24 23 23 26 24 30 30 27 30 37 38 26 35 29 31 32 34 28 25 31 31 28 27 27 27 26 25 25 24 22 20 18 16 14 12 9 7
16 20 22 19 21 27 24 23 22 20 20 18 31 33 31 23 34 30 22 33 39 36 34 36 34 29 24 26 25 25 26 28 27 28 27 25 24 23 20 18 16 14 12 11
19 17 20 24 27 23 31 30 27 19 15 21 31 33 39 33 28 30 27 35 32 41 42 36 39 31 22 18 17 21 23 27 27 27 29 27 26 26 24 20 17 16 15 11
16 24 21 9 22 24 29 34 34 35 32 29 29 28 35 28 34 24 35 41 50 57 44 42 35 34 25 24 21 19 17 24 28 26 26 29 29 29 27 24 22 20 17 13
12 21 19 15 19 20 25 29 32 36 22 23 27 35 30 31 31 35 28 27 28 32 42 40 34 32 28 26 27 24 23 18 25 29 28 27 27 30 30 28 26 23 21 18
11 19 28 21 19 26 28 28 33 25 33 17 17 25 25 35 37 31 38 30 25 22 37 34 34 34 32 27 30 28 26 24 22 29 31 30 30 30 33 32 29 27 24 23
13 18 24 25 25 21 26 29 31 30 27 29 37 31 13 15 33 35 26 36 28 21 25 45 38 31 32 34 32 28 29 27 25 23 29 31 31 31 31 34 32 29 29 26
14 19 19 24 24 25 27 31 33 33 37 32 24 36 31 16 13 25 25 29 35 32 25 30 36 48 38 28 31 30 29 30 26 27 26 28 33 34 33 33 32 32 31 29
13 17 21 25 22 14 17 29 28 36 34 34 37 30 37 11 1 4 5 15 27 30 34 25 20 33 51 33 24 29 26 27 30 30 28 28 28 32 34 34 33 34 33 30
14 23 27 30 33 23 22 21 17 31 33 35 33 36 28 9 4 7 2 6 7 23 21 30 29 32 45 29 22 26 25 26 28 33 31 26 26 27 31 35 36 35 34 32
13 20 21 31 29 25 28 27 24 22 39 35 35 30 25 18 29 2 4 5 11 13 12 19 21 20 37 26 29 25 24 23 28 31 31 28 25 27 30 33 36 37 36 33
16 17 14 27 24 26 32 29 28 24 23 23 32 31 27 13 11 27 7 5 6 11 11 14 16 21 24 22 32 28 27 25 23 29 30 29 27 25 30 31 33 36 36 35
21 16 17 14 14 14 27 28 27 30 27 26 28 28 29 25 20 20 20 7 13 17 20 18 20 23 21 25 15 19 31 34 30 28 34 31 29 26 27 31 32 33 35 36
20 22 14 9 16 21 17 17 16 16 32 27 24 26 21 18 24 31 31 20 16 16 20 26 24 22 28 36 33 17 30 35 30 30 34 33 33 31 30 30 31 34 34 36
21 23 23 17 13 10 19 8 11 15 18 18 25 28 22 18 19 25 30 35 19 23 23 24 22 24 22 22 34 37 27 38 34 31 34 36 35 34 32 31 31 30 33 34
13 16 28 20 21 23 16 14 17 14 18 17 27 29 33 21 14 16 15 26 34 29 32 27 26 18 20 23 28 36 39 39 33 30 39 38 36 32 32 31 33 33 31 32
9 7 10 18 22 21 14 12 14 15 22 21 26 26 31 33 16 17 21 30 34 39 33 34 32 31 24 20 25 28 35 36 34 32 35 41 39 35 35 30 31 34 35 33
3 10 13 8 13 13 20 24 32 33 33 31 34 35 30 34 29 27 34 40 36 41 37 38 38 34 28 25 24 29 31 39 36 33 34 40 41 37 36 34 29 30 35 37
12 18 13 22 22 28 31 33 35 41 44 43 41 38 40 34 35 39 43 43 41 36 49 43 42 42 36 28 27 27 28 37 39 35 33 39 40 37 38 38 35 30 32 37
15 20 18 15 16 19 19 33 45 46 54 48 45 40 38 41 33 42 50 49 44 40 41 44 42 44 40 34 30 30 29 32 42 40 33 35 40 39 39 40 38 34 30 33
19 19 24 19 17 18 22 16 20 13 18 31 35 34 27 37 35 35 41 39 35 37 40 42 41 42 41 36 32 32 31 35 39 42 37 34 32 41 40 39 40 37 32 30
Wind_Direction
205 211 219 220 224 229 247 255 244 246 233 229 223 223 232 243 277 213 185 195 194 194 193 191 187 199 220 209 198 199 206 196 194 190 193 192 181 179 174 213 199 177 146 171
215 223 226 231 230 233 241 255 260 251 242 225 224 228 238 235 242 195 182 205 195 191 201 196 191 197 218 214 205 203 207 203 198 191 195 197 187 188 176 206 192 168 192 203
221 231 230 229 230 233 236 241 247 254 254 240 231 224 218 211 218 205 182 207 198 194 195 205 204 198 211 215 209 207 210 209 202 196 197 198 195 189 192 212 186 193 197 213
233 235 237 233 231 231 240 238 244 251 255 255 227 250 219 217 232 221 190 180 197 194 205 203 214 202 209 217 212 209 214 212 208 204 201 201 207 205 197 192 215 193 194 208
238 234 233 237 239 235 241 239 247 246 252 255 251 227 240 221 203 205 259 192 195 202 202 203 216 212 212 218 215 212 215 214 212 211 207 206 206 209 194 200 212 201 204 206
245 240 237 241 240 239 237 241 246 247 242 250 243 246 238 223 210 207 232 204 199 203 203 209 213 212 211 217 222 217 213 216 214 216 213 211 213 212 209 200 211 214 201 209
251 246 239 234 241 233 230 233 233 241 242 240 234 240 239 237 224 226 245 204 203 201 207 201 212 210 207 218 225 227 219 218 218 217 219 212 213 219 221 210 211 209 221 209
275 259 225 233 231 234 226 223 228 229 233 239 234 238 238 238 233 230 218 194 216 197 208 213 208 212 210 210 217 221 222 221 220 222 223 217 212 220 222 223 223 217 216 232
266 258 254 278 229 225 231 229 230 248 252 249 248 232 247 238 240 231 217 226 238 209 206 210 208 214 216 209 215 218 217 215 221 224 223 227 218 218 224 224 220 223 221 214
268 298 267 258 233 229 231 232 230 233 250 258 255 248 237 226 229 233 225 219 243 235 203 202 210 214 214 214 218 218 218 213 216 220 223 227 228 222 225 228 225 222 220 221
271 269 270 272 258 225 226 237 246 253 235 253 258 257 249 232 216 218 225 226 244 244 217 208 210 212 221 222 222 219 219 218 210 217 222 222 224 224 227 227 230 226 224 222
261 274 274 259 248 247 237 241 239 244 242 259 245 251 16 348 214 211 215 223 225 255 210 195 196 216 222 225 230 219 219 221 217 215 223 225 224 224 226 231 228 227 227 226
255 250 270 259 260 250 235 238 238 239 242 249 234 245 240 312 214 204 214 222 222 224 226 225 229 201 223 230 233 227 222 220 221 219 223 227 226 224 224 228 230 229 229 229
262 251 260 271 248 315 269 237 238 237 240 239 245 235 243 261 7 154 134 224 218 225 234 250 265 219 201 225 238 224 224 220 223 223 222 227 229 228 225 224 228 229 229 230
259 256 254 259 268 278 268 261 253 243 236 242 237 241 244 297 227 117 169 201 192 222 224 225 231 226 238 215 239 219 227 238 231 228 226 227 232 230 228 226 224 229 229 229
248 257 250 255 265 268 258 249 251 261 231 237 246 268 255 325 222 240 328 132 212 183 182 199 206 211 226 242 241 244 243 246 237 230 230 225 228 227 228 228 227 226 229 229
259 253 253 257 253 268 258 244 239 245 243 235 247 254 267 286 256 253 261 169 75 216 205 199 201 201 200 235 224 234 245 249 243 234 227 225 226 225 226 228 228 228 227 229
254 253 265 265 272 251 250 239 243 245 244 244 253 262 269 267 253 256 245 236 310 292 231 218 196 192 188 200 231 230 251 250 244 239 232 228 225 224 222 226 227 228 227 226
243 246 243 239 260 265 282 234 252 261 242 239 250 261 278 276 265 260 252 241 281 274 273 235 228 219 214 203 192 196 252 252 241 239 232 232 230 228 225 226 227 225 227 227
249 242 241 234 242 266 248 227 244 264 256 244 251 254 264 283 275 271 255 247 253 249 249 228 224 227 224 220 223 211 218 246 239 231 229 230 234 232 232 229 229 230 228 229
302 267 241 238 246 250 252 275 278 257 251 248 248 255 256 261 268 278 255 257 247 254 250 256 248 236 243 227 219 215 216 229 237 237 228 226 233 234 230 231 229 229 230 230
301 298 253 240 241 254 254 254 260 256 253 246 248 240 237 245 233 261 255 247 240 247 245 251 250 257 245 236 242 231 228 240 236 238 229 225 230 232 232 226 229 232 229 229
327 298 299 268 239 258 252 248 240 248 251 239 241 244 245 240 229 226 238 252 246 247 250 248 248 253 256 259 256 238 225 228 241 237 229 225 229 231 232 228 226 228 229 228
5 1 320 282 260 260 263 257 258 257 257 255 251 255 246 243 231 229 233 246 252 243 248 249 252 254 254 256 258 251 238 231 231 237 234 226 225 227 227 228 227 229 230 227
356 359 349 343 319 277 278 278 259 260 257 252 247 246 249 237 236 237 241 246 253 248 242 245 248 248 248 254 255 248 245 237 237 235 234 229 226 227 229 226 229 230 235 232
4 357 354 333 322 321 318 302 282 300 259 241 233 226 238 234 230 242 248 255 258 250 246 247 247 246 248 253 247 243 244 236 236 239 236 227 222 231 230 227 230 229 235 232
Height
3124 3128 3126 3130 3133 3136 3134 3133 3133 3133 3136 3139 3141 3144 3144 3146 3146 3144 3162 3166 3170 3170 3172 3177 3181 3183 3183 3186 3190 3193 3197 3200 3204 3209 3212 3215 3217 3219 3221 3224 3226 3228 3230 3231
3125 3120 3126 3130 3132 3133 3133 3133 3130 3129 3131 3134 3137 3140 3141 3142 3146 3150 3151 3161 3166 3169 3168 3172 3176 3180 3180 3183 3188 3192 3196 3199 3203 3207 3211 3215 3217 3220 3223 3223 3225 3227 3229 3231
3118 3121 3123 3126 3128 3130 3130 3131 3131 3129 3129 3129 3132 3135 3132 3136 3140 3144 3139 3154 3162 3164 3165 3166 3170 3174 3177 3179 3184 3190 3194 3198 3202 3206 3209 3213 3216 3218 3221 3224 3226 3228 3230 3231
3115 3119 3120 3121 3123 3127 3127 3129 3130 3129 3129 3126 3128 3129 3128 3128 3129 3128 3137 3148 3157 3161 3161 3164 3165 3170 3173 3176 3182 3188 3192 3197 3201 3204 3207 3211 3215 3217 3220 3224 3225 3228 3230 3232
3112 3114 3116 3116 3120 3123 3123 3127 3127 3128 3127 3127 3123 3125 3124 3124 3127 3133 3128 3146 3152 3156 3158 3160 3161 3165 3170 3173 3178 3184 3190 3194 3198 3202 3205 3209 3212 3216 3220 3222 3224 3226 3229 3231
3108 3109 3112 3114 3117 3119 3123 3125 3125 3125 3125 3121 3120 3119 3116 3120 3120 3127 3131 3134 3147 3152 3156 3158 3160 3163 3166 3169 3173 3179 3186 3191 3195 3199 3202 3207 3211 3214 3217 3220 3223 3225 3228 3230
3105 3105 3107 3110 3111 3114 3118 3121 3121 3121 3116 3109 3116 3115 3113 3116 3115 3120 3123 3132 3141 3143 3148 3153 3155 3157 3161 3165 3169 3175 3181 3186 3191 3195 3199 3203 3208 3212 3215 3218 3220 3224 3226 3229
3101 3099 3102 3105 3107 3110 3111 3116 3116 3114 3108 3106 3110 3104 3105 3115 3115 3117 3116 3129 3132 3135 3135 3140 3148 3152 3157 3162 3166 3170 3176 3182 3186 3192 3196 3200 3205 3208 3212 3216 3219 3222 3225 3227
3099 3097 3098 3098 3102 3107 3108 3108 3113 3112 3107 3102 3100 3103 3105 3110 3110 3116 3117 3112 3116 3120 3131 3134 3136 3144 3151 3157 3161 3166 3171 3177 3182 3187 3192 3196 3201 3205 3208 3213 3217 3220 3223 3225
3101 3098 3095 3096 3100 3102 3104 3107 3107 3108 3105 3098 3095 3095 3095 3101 3106 3109 3113 3113 3106 3103 3112 3129 3134 3137 3145 3151 3157 3161 3166 3171 3177 3182 3187 3192 3197 3202 3205 3209 3213 3217 3221 3224
3102 3102 3094 3095 3092 3096 3101 3100 3099 3101 3102 3099 3096 3091 3091 3091 3095 3101 3106 3111 3110 3115 3109 3124 3127 3137 3141 3147 3151 3157 3161 3166 3170 3175 3180 3186 3191 3196 3200 3204 3209 3214 3218 3222
3100 3100 3094 3093 3092 3094 3096 3096 3098 3097 3099 3097 3095 3089 3085 3085 3086 3094 3100 3107 3113 3108 3108 3116 3126 3132 3138 3143 3146 3151 3156 3160 3165 3170 3175 3180 3186 3191 3195 3199 3204 3209 3213 3218
3099 3096 3093 3092 3092 3088 3088 3092 3092 3093 3094 3090 3091 3089 3086 3092 3090 3092 3096 3101 3107 3113 3114 3112 3110 3127 3133 3136 3141 3145 3150 3156 3160 3164 3169 3174 3179 3184 3189 3194 3199 3204 3209 3213
3094 3095 3094 3088 3087 3089 3084 3086 3087 3088 3086 3088 3087 3089 3089 3092 3089 3092 3095 3098 3102 3108 3112 3113 3113 3101 3122 3129 3135 3139 3144 3150 3155 3158 3162 3167 3172 3177 3183 3188 3192 3197 3203 3208
3093 3091 3092 3088 3084 3087 3085 3082 3082 3082 3082 3083 3085 3087 3091 3084 3087 3088 3093 3099 3100 3103 3110 3116 3121 3121 3106 3126 3131 3135 3140 3144 3148 3152 3157 3161 3167 3172 3177 3181 3186 3191 3196 3202
3086 3084 3087 3084 3083 3083 3081 3080 3081 3079 3080 3081 3080 3081 3083 3088 3089 3088 3091 3088 3096 3097 3099 3103 3110 3118 3116 3115 3126 3131 3136 3139 3143 3146 3151 3157 3161 3166 3170 3175 3180 3185 3190 3196
3084 3082 3083 3080 3081 3079 3076 3075 3076 3076 3075 3076 3078 3081 3084 3092 3093 3086 3089 3088 3089 3095 3096 3098 3102 3109 3114 3107 3124 3127 3132 3136 3138 3142 3147 3151 3156 3160 3164 3169 3173 3178 3183 3189
3079 3079 3081 3080 3080 3075 3067 3072 3073 3073 3074 3076 3077 3080 3082 3086 3090 3091 3090 3084 3092 3094 3094 3094 3095 3099 3105 3114 3113 3121 3127 3130 3134 3137 3141 3145 3150 3155 3159 3162 3167 3173 3177 3182
3075 3076 3076 3077 3076 3072 3067 3070 3068 3065 3067 3074 3075 3073 3076 3079 3083 3083 3083 3087 3088 3091 3089 3093 3097 3097 3100 3106 3111 3115 3121 3123 3128 3131 3135 3140 3144 3149 3153 3157 3161 3166 3171 3176
3069 3070 3071 3072 3072 3068 3065 3061 3065 3066 3065 3071 3066 3066 3069 3073 3076 3078 3079 3075 3078 3083 3083 3085 3091 3095 3098 3104 3108 3112 3114 3116 3120 3125 3129 3135 3138 3143 3148 3152 3156 3161 3165 3170
3065 3063 3063 3066 3067 3065 3065 3061 3063 3066 3068 3061 3063 3064 3064 3064 3068 3073 3066 3067 3074 3078 3082 3084 3086 3090 3093 3094 3099 3104 3108 3109 3114 3119 3122 3127 3132 3137 3142 3146 3151 3155 3159 3163
3065 3062 3061 3062 3063 3060 3059 3058 3062 3058 3051 3055 3056 3058 3058 3059 3057 3058 3060 3062 3067 3070 3075 3077 3078 3080 3086 3091 3092 3099 3102 3106 3107 3111 3116 3120 3125 3129 3134 3139 3144 3148 3152 3155
3065 3064 3059 3059 3054 3053 3049 3048 3048 3046 3045 3051 3050 3051 3052 3052 3051 3053 3054 3052 3063 3065 3068 3070 3072 3076 3081 3084 3085 3089 3095 3098 3101 3104 3108 3113 3118 3122 3127 3132 3137 3140 3143 3147
3065 3060 3055 3052 3050 3045 3045 3043 3042 3039 3037 3040 3043 3044 3044 3045 3045 3046 3047 3045 3054 3062 3059 3062 3065 3068 3074 3078 3080 3082 3087 3091 3092 3097 3102 3106 3110 3115 3120 3125 3129 3133 3135 3139
3064 3059 3054 3049 3044 3040 3038 3032 3030 3029 3026 3027 3031 3034 3034 3038 3039 3039 3039 3043 3046 3049 3050 3054 3059 3061 3066 3070 3073 3075 3079 3083 3087 3090 3094 3098 3103 3108 3113 3117 3121 3125 3129 3132
3062 3058 3053 3047 3042 3037 3031 3024 3022 3017 3012 3013 3019 3024 3028 3031 3033 3035 3038 3041 3042 3042 3044 3047 3051 3053 3057 3061 3064 3067 3071 3075 3079 3084 3089 3092 3095 3101 3105 3110 3113 3119 3123 3126